KD8CJ Weather Reports


Display with metric or nautical units.
time (UTC)temp
F
wind
direction
speed
MPH
gust
MPH
rain 1hr
in
rain 24hr
in
rain mn
in
humidity
%
barometer
mb
20260505070021 63 236 2.0 5.0 0.00 0.00 0.00 65 1004.7
20260505064522 63 223 2.0 5.0 0.00 0.00 0.00 64 1004.8
20260505063023 63 165 1.0 6.0 0.00 0.00 0.00 63 1004.9
20260505061516 64 271 1.0 5.0 0.00 0.00 0.00 63 1005.0
20260505060022 64 285 1.0 7.0 0.00 0.00 0.00 63 1005.1
20260505054523 64 84 1.0 6.0 0.00 0.00 0.00 63 1005.3
20260505053022 65 283 1.0 8.0 0.00 0.00 0.00 62 1005.6
20260505051525 65 252 2.0 6.0 0.00 0.00 0.00 62 1005.7
20260505041540 64 18 1.0 5.0 0.00 0.00 0.00 63 1005.6
20260505040027 64 275 1.0 6.0 0.00 0.00 0.00 64 1005.6
20260505034527 64 257 1.0 5.0 0.00 0.00 0.00 64 1005.9
20260505033019 63 244 1.0 4.0 0.00 0.00 0.00 64 1005.9
20260505031522 64 230 1.0 5.0 0.00 0.00 0.00 64 1006.0
20260505030033 63 285 1.0 5.0 0.00 0.00 0.00 64 1006.0
20260505024527 63 295 1.0 5.0 0.00 0.00 0.00 63 1005.9
20260505023039 64 244 2.0 6.0 0.00 0.00 0.00 63 1005.8
20260505021516 63 257 1.0 5.0 0.00 0.00 0.00 63 1005.9
20260505020021 64 167 1.0 3.0 0.00 0.00 0.00 62 1006.1
20260505014506 64 268 1.0 6.0 0.00 0.00 0.00 62 1006.2
20260505013018 64 276 0.0 6.0 0.00 0.00 0.00 61 1006.1
20260505011521 65 288 1.0 4.0 0.00 0.00 0.00 60 1005.9
20260505010019 65 284 1.0 4.0 0.00 0.00 0.00 59 1005.9
20260505004503 66 271 0.0 9.0 0.00 0.00 0.00 57 1005.8
20260505003007 67 243 2.0 6.0 0.00 0.00 0.00 56 1005.8
20260505001514 67 247 3.0 8.0 0.00 0.00 0.00 54 1005.6
20260505000027 68 265 3.0 15.0 0.00 0.00 0.00 53 1005.5
20260504234523 68 325 3.0 14.0 0.00 0.00 0.00 52 1005.5
20260504233007 69 247 2.0 11.0 0.00 0.00 0.00 51 1005.4
20260504231508 70 295 2.0 7.0 0.00 0.00 0.00 48 1005.4
20260504230017 71 264 3.0 7.0 0.00 0.00 0.00 48 1005.4
20260504224517 71 280 3.0 6.0 0.00 0.00 0.00 48 1005.6
20260504223023 71 154 3.0 11.0 0.00 0.00 0.00 48 1005.7
20260504221505 72 247 5.0 11.0 0.00 0.00 0.00 45 1005.7
20260504220011 72 236 3.0 15.0 0.00 0.00 0.00 48 1005.6
20260504214514 73 276 4.0 13.0 0.00 0.00 0.00 49 1005.5
20260504213042 73 274 4.0 14.0 0.00 0.00 0.00 48 1005.5
20260504211525 73 231 5.0 9.0 0.00 0.00 0.00 46 1005.6
20260504210011 73 288 3.0 13.0 0.00 0.00 0.00 46 1005.8
20260504204512 73 267 3.0 11.0 0.00 0.00 0.00 48 1005.8
20260504203016 72 282 2.0 11.0 0.00 0.00 0.00 48 1006.0
20260504201526 74 310 4.0 9.0 0.00 0.00 0.00 47 1005.9
20260504200024 73 315 2.0 13.0 0.00 0.00 0.00 48 1005.9
20260504194514 73 271 3.0 11.0 0.00 0.00 0.00 48 1006.0
20260504193012 73 268 2.0 9.0 0.00 0.00 0.00 47 1006.2
20260504191520 73 269 3.0 9.0 0.00 0.00 0.00 47 1006.5
20260504190024 73 233 4.0 13.0 0.00 0.00 0.00 48 1006.6
20260504184523 73 276 3.0 8.0 0.00 0.00 0.00 47 1006.7
20260504183019 72 276 2.0 7.0 0.00 0.00 0.00 47 1006.8
20260504181516 71 330 2.0 11.0 0.00 0.00 0.00 51 1006.8
20260504180020 71 274 2.0 10.0 0.00 0.00 0.00 51 1007.0
20260504174522 69 70 4.0 13.0 0.00 0.00 0.00 51 1007.3
20260504173034 70 256 4.0 9.0 0.00 0.00 0.00 50 1007.3
20260504171518 70 265 3.0 11.0 0.00 0.00 0.00 48 1007.5
20260504081524 49 269 1.0 5.0 0.00 0.00 0.00 61 1009.9